Location: ?????????
(38.4921°N, 22.9787°E)
Time: 03:38:22
(UTC+00:00)

Cosmos 2219 Rocket - Pass Details

Date: 08 December 2025
Orbit: 827 x 845 km, 71.0° (Epoch: 21 January)

Event Time Altitude Azimuth Distance (km) Brightness Sun altitude
Rises 04:59:45 0° 342° (NNW) 3,406 5.0 -6.7°
Reaches altitude 10° 05:02:18 10° 348° (NNW) 2,466 4.3 -6.2°
Maximum altitude 05:07:46 49° 63° (ENE) 1,077 3.1 -5.2°
Drops below altitude 10° 05:13:11 10° 138° (SE) 2,440 6.0 -4.3°
Sets 05:15:41 0° 143° (SE) 3,367 6.6 -3.8°
